Regional Weather Roundup
Issued by NWS Little Rock, AR

Home | Current Version | Previous Version | Graphics & Text | Print | Product List | Glossary On
Versions: 1 2 3 4 5 6 7 8 9 10 11 12 13 14 15 16 17 18 19 20 21 22 23 24 25 26 27
000
ASUS44 KLZK 250905
RWRLZK

WEATHER ROUNDUP FOR ARKANSAS
NATIONAL WEATHER SERVICE LITTLE ROCK AR
400 AM CDT MON JUL 25 2016

NOTE: "FAIR" INDICATES FEW OR NO CLOUDS BELOW 12,000 FEET WITH NO
SIGNIFICANT WEATHER AND/OR OBSTRUCTIONS TO VISIBILITY.

ARZ001-003-010-029-251000-
NORTHWEST ARKANSAS

CITY           SKY/WX    TMP DP  RH WIND       PRES   REMARKS
FAYETTEVILLE   CLEAR     72  71  97 NE3       30.00R
FORT SMITH     CLEAR     77  72  84 E3        29.96R
HARRISON       MOCLDY    73  71  93 CALM      30.01S
BENTONVILLE    CLEAR     77  66  69 S3        30.01R
ROGERS         CLEAR     76  70  82 CALM      30.02R
SILOAM SPGS    CLEAR     73  64  73 SE5       30.02R
HIGHFILL       CLEAR     76  71  85 CALM      30.00R
$$

ARZ004-005-016-251000-
NORTH CENTRAL ARKANSAS

CITY           SKY/WX    TMP DP  RH WIND       PRES   REMARKS
BATESVILLE     PTCLDY    73  72  94 CALM      29.98S
FLIPPIN        CLEAR     75  72  88 CALM      29.96R
MTN HOME       CLEAR     74  73  97 CALM      29.98S
$$

ARZ040-041-251000-
WEST CENTRAL ARKANSAS

CITY           SKY/WX    TMP DP  RH WIND       PRES   REMARKS
MENA           MOCLDY    77  73  88 W3        30.01R
MOUNT IDA      PTCLDY    72  71  97 CALM      29.97R
$$

ARZ009-017-025-026-028-251000-
NORTHEAST ARKANSAS

CITY           SKY/WX    TMP DP  RH WIND       PRES   REMARKS
CORNING          N/A     77  77 100 SE3       29.97F
JONESBORO      PTCLDY    76  74  93 NE3       29.97S
NEWPORT        PTCLDY    78  76  94 CALM      29.98R
WALNUT RIDGE   PTCLDY    77  73  88 SE5       29.97S
BLYTHEVILLE    PTCLDY    78  76  93 CALM      29.99R
$$

ARZ022-023-033-042-044-251000-
CENTRAL ARKANSAS

CITY           SKY/WX    TMP DP  RH WIND       PRES   REMARKS
LITTLE ROCK    MOCLDY    77  71  82 SW3       29.97R
N LITTLE ROCK    N/A     74  70  87 CALM      29.94R
JACKSONVILLE   PTCLDY    74  72  91 NW3       29.96R
SEARCY         PTCLDY    74  72  93 CALM      29.98R
HOT SPRINGS    CLEAR     73  72  96 CALM      29.98R
RUSSELLVILLE   CLEAR     72  70  93 CALM      29.97R
$$

ARZ036-251000-
EAST ARKANSAS

CITY           SKY/WX    TMP DP  RH WIND       PRES   REMARKS
WEST MEMPHIS   CLEAR     77  75  93 CALM      29.96R
$$

ARZ050-053-066-070-073-251000-
SOUTHWEST ARKANSAS

CITY           SKY/WX    TMP DP  RH WIND       PRES   REMARKS
CAMDEN         CLEAR     73  68  83 CALM      29.98R
TEXARKANA      CLEAR     74  70  87 CALM      29.97S
EL DORADO      PTCLDY    73  72  96 CALM      29.98S
DE QUEEN       CLOUDY    75  75 100 CALM      29.95S FOG
$$

ARZ056-057-069-251000-
SOUTHEAST ARKANSAS

CITY           SKY/WX    TMP DP  RH WIND       PRES   REMARKS
PINE BLUFF     MOCLDY    75  74  96 S6        29.97R
STUTTGART      CLEAR     79  72  78 SE5       29.96R
MONTICELLO     CLEAR     76  72  87 CALM      29.98R

$$






USA.gov is the U.S. government's official web portal to all federal, state and local government web resources and services.